Weather History for KCSQ - August, 2013

Change the Weather History Date:

Saturday, August 10, 2013

  Actual Average Record
Temperature  
Mean Temperature 68 °F -  
Max Temperature 80 °F 83 °F 98 °F (1980)
Min Temperature 57 °F 61 °F 45 °F (1982)
Cooling Degree Days 4    
Growing Degree Days 18 (Base 50)    
Moisture  
Dew Point 57 °F    
Average Humidity 80    
Maximum Humidity 94    
Minimum Humidity 45    
Precipitation  
Precipitation 0.00 in - - ()
Sea Level Pressure  
Sea Level Pressure 30.18 in    
Wind  
Wind Speed 5 mph (ENE)    
Max Wind Speed 9 mph    
Max Gust Speed 13 mph    
Visibility 10 miles    
Events      
Averages and records for this station are not official NWS values.
T = Trace of Precipitation, MM = Missing Value Source: NWS Daily Summary

Daily Weather History Graph

Daily Weather History Graph

Search for Another Location

Airport or City:

Trip Planner

Search our weather history database for the weather conditions in past years. The results will help you decide how hot, cold, wet, or windy it might be!

Date:

Astronomy

Aug. 10, 2013 Rise Set
Actual Time 6:22 AM CDT 8:22 PM CDT
Civil Twilight 5:52 AM CDT 8:52 PM CDT
Nautical Twilight 5:15 AM CDT 9:28 PM CDT
Astronomical Twilight 4:35 AM CDT 10:08 PM CDT
Moon 10:12 AM CDT (8/10) 10:01 PM CDT (8/10)
Length of Visible Light 14h 59m
Length of Day
13h 59m
Waxing Crescent, 14% of the Moon is Illuminated
Aug 10
Waxing Crescent
Aug 14
First Quarter
Aug 20
Full
Aug 28
Last Quarter
Sep 5
New

Hourly Weather History & Observations

Time (CDT) Temp. Heat Index Dew Point Humidity Pressure Visibility Wind Dir Wind Speed Gust Speed Precip Events Conditions
12:15 AM 62.6 °F - 55.4 °F 77% 30.16 in 10.0 mi NE 5.8 mph - N/A   Clear
12:35 AM 60.8 °F - 55.4 °F 82% 30.16 in 10.0 mi NE 5.8 mph - N/A   Clear
12:55 AM 60.8 °F - 55.4 °F 82% 30.17 in 10.0 mi NE 4.6 mph - N/A   Clear
1:15 AM 62.6 °F - 55.4 °F 77% 30.17 in 10.0 mi NNE 5.8 mph - N/A   Clear
1:35 AM 62.6 °F - 55.4 °F 77% 30.17 in 10.0 mi NE 6.9 mph - N/A   Clear
1:55 AM 62.6 °F - 55.4 °F 77% 30.18 in 10.0 mi NE 5.8 mph - N/A   Clear
2:15 AM 60.8 °F - 55.4 °F 82% 30.18 in 10.0 mi NE 3.5 mph - N/A   Clear
2:35 AM 59.0 °F - 57.2 °F 94% 30.18 in 10.0 mi NE 3.5 mph - N/A   Clear
2:55 AM 59.0 °F - 55.4 °F 88% 30.18 in 10.0 mi NE 3.5 mph - N/A   Clear
3:15 AM 59.0 °F - 55.4 °F 88% 30.18 in 10.0 mi Calm Calm - N/A   Clear
3:35 AM 59.0 °F - 55.4 °F 88% 30.18 in 10.0 mi Calm Calm - N/A   Clear
3:55 AM 60.8 °F - 55.4 °F 82% 30.19 in 10.0 mi Calm Calm - N/A   Clear
4:15 AM 60.8 °F - 55.4 °F 82% 30.18 in 10.0 mi NE 3.5 mph - N/A   Clear
4:35 AM 60.8 °F - 55.4 °F 82% 30.19 in 10.0 mi NE 8.1 mph - N/A   Clear
4:55 AM 60.8 °F - 55.4 °F 82% 30.19 in 10.0 mi NNE 8.1 mph - N/A   Clear
5:15 AM 59.0 °F - 55.4 °F 88% 30.19 in 10.0 mi NNE 6.9 mph - N/A   Clear
5:35 AM 57.2 °F - 55.4 °F 94% 30.19 in 10.0 mi NE 4.6 mph - N/A   Clear
5:55 AM 57.2 °F - 55.4 °F 94% 30.19 in 10.0 mi NE 6.9 mph - N/A   Clear
6:15 AM 57.2 °F - 55.4 °F 94% 30.20 in 9.0 mi NE 8.1 mph - N/A   Clear
6:35 AM 57.2 °F - 55.4 °F 94% 30.20 in 10.0 mi ENE 6.9 mph - N/A   Clear
6:55 AM 57.2 °F - 55.4 °F 94% 30.20 in 9.0 mi ENE 5.8 mph - N/A   Clear
7:15 AM 59.0 °F - 55.4 °F 88% 30.20 in 10.0 mi ENE 5.8 mph - N/A   Clear
7:35 AM 60.8 °F - 57.2 °F 88% 30.20 in 10.0 mi East 4.6 mph - N/A   Clear
7:55 AM 62.6 °F - 57.2 °F 82% 30.20 in 10.0 mi East 4.6 mph - N/A   Clear
8:15 AM 64.4 °F - 59.0 °F 83% 30.21 in 10.0 mi East 3.5 mph - N/A   Clear
8:35 AM 66.2 °F - 59.0 °F 78% 30.21 in 10.0 mi ESE 4.6 mph - N/A   Clear
12:35 PM 77.0 °F - 57.2 °F 50% 30.22 in 9.0 mi South 5.8 mph - N/A   Clear
1:15 PM 78.8 °F - 59.0 °F 51% 30.21 in 9.0 mi Calm Calm - N/A   Clear
2:35 PM 80.6 °F 80.8 °F 57.2 °F 45% 30.19 in 9.0 mi Variable 5.8 mph 12.7 mph N/A   Clear
6:55 PM 78.8 °F - 57.2 °F 47% 30.13 in 10.0 mi SE 3.5 mph - N/A   Clear
10:35 PM 68.0 °F - 60.8 °F 78% 30.13 in 10.0 mi SSE 8.1 mph - N/A   Clear
10:55 PM 68.0 °F - 60.8 °F 78% 30.13 in 10.0 mi South 6.9 mph - N/A   Clear
11:15 PM 68.0 °F - 60.8 °F 78% 30.12 in 10.0 mi South 9.2 mph - N/A   Clear
11:35 PM 68.0 °F - 60.8 °F 78% 30.13 in 10.0 mi SSE 5.8 mph - N/A   Clear
11:55 PM 66.2 °F - 60.8 °F 83% 30.13 in 10.0 mi South 6.9 mph - N/A   Clear